Home > Weather > Saint John > Past weeks

Flag for Canada Past Weather in Saint John, New Brunswick, Canada — Yesterday and Last 2 Weeks

Now
59 °F

Sprinkles. Fog.


Feels Like: 58 °F
Forecast: 60 / 72 °F
Wind: 6 mph from Southwest

Location: Saint John

Current Time: Jun 30, 2016 at 5:42:28 AM

Latest Report: Jun 30, 2016 at 5:00 AM


Visibility: 1 mi

Pressure: 29.87 "Hg

Humidity: 100%

Dew Point: 59 °F

Location of Saint JohnLocation

Past Weather in Saint John — Graph

°F

Saint John Temperature Yesterday

Maximum temperature yesterday: 72 °F (at 4:55 PM)
Minimum temperature yesterday: 61 °F (at 12:00 AM)
Average temperature yesterday: 65 °F

High & Low Weather Summary for the Past Weeks

 TemperatureHumidityPressure
High82 °F (Jun 26, 3:00 PM)100% (Jun 17, 2:00 AM)30.26 "Hg (Jun 17, 2:00 AM)
Low34 °F (Jun 17, 4:00 AM)29% (Jun 17, 3:00 PM)29.65 "Hg (Jun 21, 6:00 PM)
Average59 °F72%29.98 "Hg
* Reported Jun 15 4:00 AM — Jun 30 4:00 AM, Saint John, Weather by CustomWeather, © 2016

Note: Actual official high and low records may vary slightly from our data, if they occured in-between our weather recording intervals... More about our weather records

Advertising

Saint John Weather History for the Previous 24 Hours

Scroll right to see more
 ConditionsComfort  
Time TempWeatherWind HumidityBarometerVisibility
4:00 AM
Thu, Jun 30
61 °FSprinkles. Fog.7 mph94%29.87 "Hg1 mi
3:00 AM61 °FLight rain. Fog.8 mph100%29.88 "Hg1 mi
2:00 AM59 °FLight rain. Fog.7 mph100%29.90 "Hg1 mi
1:00 AM59 °FLight rain. Fog.8 mph100%29.91 "Hg1 mi
12:00 AM59 °FLight rain. Fog.13 mph100%29.91 "Hg1 mi
11:00 PM
Wed, Jun 29
63 °FLight rain. Fog.16 mph94%29.92 "Hg1 mi
10:00 PM63 °FHeavy rain. Fog.9 mph94%29.93 "Hg1 mi
9:00 PM63 °FLight rain. Fog.6 mph94%29.92 "Hg3 mi
8:00 PM64 °FLight rain. Fog.7 mph94%29.92 "Hg1 mi
7:00 PM68 °FLow clouds.9 mph94%29.92 "Hg8 mi
6:00 PM70 °FMostly cloudy.9 mph94%29.92 "Hg12 mi
5:00 PM72 °FMore clouds than sun.12 mph94%29.92 "Hg10 mi
4:55 PM72 °FMostly cloudy.12 mph94%29.93 "Hg8 mi
4:00 PM70 °FLight rain. Fog.6 mph94%29.94 "Hg6 mi
3:00 PM66 °FLight rain. Fog.3 mph100%29.96 "Hg2 mi
2:00 PM66 °FFog.8 mph94%29.97 "Hg1 mi
1:00 PM64 °FLight rain. Fog.10 mph100%29.98 "Hg1 mi
12:00 PM66 °FLight rain. Fog.13 mph94%29.99 "Hg1 mi
11:00 AM66 °FLight rain. Fog.12 mph94%29.99 "Hg1 mi
10:00 AM66 °FLight rain. Fog.7 mph94%29.99 "Hg1 mi
9:00 AM64 °FLight rain. Fog.8 mph100%30.00 "Hg1 mi
8:00 AM64 °FLight rain. Fog.9 mph100%29.99 "Hg3 mi
7:00 AM64 °FLight rain. Fog.12 mph100%29.98 "Hg2 mi
6:00 AM64 °FLight rain. Fog.9 mph94%29.98 "Hg2 mi
5:00 AM64 °FLight rain. Fog.7 mph94%29.98 "Hg2 mi
Weather by CustomWeather, © 2016

See weather overviewHow to use our weather pages